Time,TemperatureF,DewpointF,PressureIn,WindDirection,WindDirectionDegrees,WindSpeedMPH,WindSpeedGustMPH,Humidity,HourlyPrecipIn,Conditions,Clouds,dailyrainin,SoftwareType,DateUTC
2013-07-22 00:01:00,72.1,69.6,29.95,East,86,4.6,4.6,92,0.00,RA,,0.00,WeatherDisplay:10.37,2013-07-22 04:01:00,
2013-07-22 00:05:00,72.2,70.1,29.95,East,85,4.0,4.0,93,0.00,RA,,0.00,WeatherDisplay:10.37,2013-07-22 04:05:00,
2013-07-22 00:10:00,72.2,69.7,29.94,East,84,4.0,4.0,92,0.00,CLR,,0.00,WeatherDisplay:10.37,2013-07-22 04:10:00,
2013-07-22 00:15:00,72.1,70.0,29.95,East,84,3.5,3.5,93,0.00,CLR,,0.00,WeatherDisplay:10.37,2013-07-22 04:15:00,
2013-07-22 00:20:00,72.1,70.0,29.95,NE,35,6.0,6.0,93,0.00,CLR,,0.00,WeatherDisplay:10.37,2013-07-22 04:20:00,
2013-07-22 00:25:00,72.0,69.5,29.95,NNE,26,4.6,4.6,92,0.00,CLR,,0.00,WeatherDisplay:10.37,2013-07-22 04:25:00,
2013-07-22 00:31:00,71.9,69.8,29.95,NNE,26,3.5,3.5,93,0.00,CLR,,0.00,WeatherDisplay:10.37,2013-07-22 04:31:00,
2013-07-22 00:36:00,71.9,69.8,29.95,NNE,26,3.5,3.5,93,0.00,CLR,,0.00,WeatherDisplay:10.37,2013-07-22 04:36:00,
2013-07-22 00:41:00,71.9,69.8,29.95,NNE,26,5.0,5.0,93,0.00,CLR,,0.00,WeatherDisplay:10.37,2013-07-22 04:41:00,
2013-07-22 00:46:00,71.8,69.7,29.95,NNE,33,5.8,5.8,93,0.00,CLR,,0.00,WeatherDisplay:10.37,2013-07-22 04:46:00,
2013-07-22 00:51:00,71.8,69.7,29.95,NNE,30,5.8,5.8,93,0.00,CLR,,0.00,WeatherDisplay:10.37,2013-07-22 04:51:00,
2013-07-22 00:56:00,71.7,69.6,29.95,NNE,30,4.6,4.6,93,0.00,CLR,,0.00,WeatherDisplay:10.37,2013-07-22 04:56:00,
2013-07-22 01:02:00,71.7,69.6,29.95,NNE,30,5.0,5.0,93,0.00,CLR,,0.00,WeatherDisplay:10.37,2013-07-22 05:02:00,
2013-07-22 01:07:00,71.6,69.5,29.95,NNE,31,5.0,5.0,93,0.00,CLR,,0.00,WeatherDisplay:10.37,2013-07-22 05:07:00,
2013-07-22 01:12:00,71.6,69.5,29.95,NNE,31,4.6,4.6,93,0.00,CLR,,0.00,WeatherDisplay:10.37,2013-07-22 05:12:00,
2013-07-22 01:17:00,71.5,69.4,29.95,NNE,27,4.6,4.6,93,0.00,CLR,,0.00,WeatherDisplay:10.37,2013-07-22 05:17:00,
2013-07-22 01:22:00,71.4,69.3,29.95,NNE,27,4.0,4.0,93,0.00,CLR,,0.00,WeatherDisplay:10.37,2013-07-22 05:22:00,
2013-07-22 01:27:00,71.4,69.3,29.95,NNE,27,4.6,4.6,93,0.00,CLR,,0.00,WeatherDisplay:10.37,2013-07-22 05:27:00,
2013-07-22 01:33:00,71.4,69.3,29.95,NNE,27,3.5,3.5,93,0.00,CLR,,0.00,WeatherDisplay:10.37,2013-07-22 05:33:00,
2013-07-22 01:38:00,71.4,69.3,29.95,NNE,29,3.5,3.5,93,0.00,CLR,,0.00,WeatherDisplay:10.37,2013-07-22 05:38:00,
2013-07-22 01:43:00,71.4,69.3,29.95,NNE,29,4.6,4.6,93,0.00,CLR,,0.00,WeatherDisplay:10.37,2013-07-22 05:43:00,
2013-07-22 01:48:00,71.3,69.2,29.95,NNE,29,3.5,3.5,93,0.00,CLR,,0.00,WeatherDisplay:10.37,2013-07-22 05:48:00,
2013-07-22 01:53:00,71.3,69.2,29.95,NNE,29,3.5,3.5,93,0.00,CLR,,0.00,WeatherDisplay:10.37,2013-07-22 05:53:00,
2013-07-22 01:59:00,71.3,69.5,29.95,NNE,29,3.0,3.0,94,0.00,CLR,,0.00,WeatherDisplay:10.37,2013-07-22 05:59:00,
2013-07-22 02:04:00,71.4,69.6,29.95,NNE,29,1.1,0.0,94,0.00,CLR,,0.00,WeatherDisplay:10.37,2013-07-22 06:04:00,
2013-07-22 02:09:00,71.5,69.7,29.95,NNE,29,0.0,0.1,94,0.00,CLR,,0.00,WeatherDisplay:10.37,2013-07-22 06:09:00,
2013-07-22 02:14:00,71.5,69.7,29.96,NNE,28,3.5,3.5,94,0.00,CLR,,0.00,WeatherDisplay:10.37,2013-07-22 06:14:00,
2013-07-22 02:19:00,71.5,69.7,29.95,NNE,18,4.0,4.0,94,0.00,CLR,,0.00,WeatherDisplay:10.37,2013-07-22 06:19:00,
2013-07-22 02:24:00,71.5,69.7,29.95,NNE,18,1.1,1.1,94,0.00,CLR,,0.00,WeatherDisplay:10.37,2013-07-22 06:24:00,
2013-07-22 02:29:00,71.6,69.8,29.95,NNE,18,2.0,2.0,94,0.00,CLR,,0.00,WeatherDisplay:10.37,2013-07-22 06:29:00,
2013-07-22 02:34:00,71.7,69.9,29.95,NNE,24,4.6,4.6,94,0.00,CLR,,0.00,WeatherDisplay:10.37,2013-07-22 06:34:00,
2013-07-22 02:40:00,71.9,70.1,29.95,NNE,32,5.8,5.8,94,0.00,CLR,,0.00,WeatherDisplay:10.37,2013-07-22 06:40:00,
2013-07-22 02:45:00,71.7,69.9,29.95,NNE,32,5.8,5.8,94,0.00,CLR,,0.00,WeatherDisplay:10.37,2013-07-22 06:45:00,
2013-07-22 02:50:00,71.5,69.7,29.95,NNE,31,5.0,5.0,94,0.00,CLR,,0.00,WeatherDisplay:10.37,2013-07-22 06:50:00,
2013-07-22 02:55:00,71.2,69.4,29.95,NNE,31,3.5,3.5,94,0.00,CLR,,0.00,WeatherDisplay:10.37,2013-07-22 06:55:00,
2013-07-22 03:00:00,71.3,69.5,29.95,NNE,31,4.6,4.6,94,0.00,CLR,,0.00,WeatherDisplay:10.37,2013-07-22 07:00:00,
2013-07-22 03:05:00,71.3,69.5,29.94,NNE,31,4.6,4.6,94,0.00,CLR,,0.00,WeatherDisplay:10.37,2013-07-22 07:05:00,
2013-07-22 03:11:00,71.3,69.5,29.94,NE,36,7.0,7.0,94,0.00,CLR,,0.00,WeatherDisplay:10.37,2013-07-22 07:11:00,
2013-07-22 03:16:00,71.4,69.6,29.94,NNE,21,5.8,5.8,94,0.00,CLR,,0.00,WeatherDisplay:10.37,2013-07-22 07:16:00,
2013-07-22 03:21:00,71.2,69.4,29.94,NNE,27,5.8,5.8,94,0.00,CLR,,0.00,WeatherDisplay:10.37,2013-07-22 07:21:00,
2013-07-22 03:26:00,71.4,69.6,29.94,NE,42,7.0,7.0,94,0.00,CLR,,0.00,WeatherDisplay:10.37,2013-07-22 07:26:00,
2013-07-22 03:31:00,71.3,69.5,29.94,NNE,30,7.0,7.0,94,0.00,CLR,,0.00,WeatherDisplay:10.37,2013-07-22 07:31:00,
2013-07-22 03:36:00,71.3,69.5,29.94,NNE,29,6.9,6.9,94,0.00,CLR,,0.00,WeatherDisplay:10.37,2013-07-22 07:36:00,
2013-07-22 03:41:00,71.2,69.4,29.93,NNE,27,7.0,7.0,94,0.00,CLR,,0.00,WeatherDisplay:10.37,2013-07-22 07:41:00,
2013-07-22 03:46:00,71.1,69.6,29.93,NE,38,9.2,9.2,95,0.00,CLR,,0.00,WeatherDisplay:10.37,2013-07-22 07:46:00,
2013-07-22 03:52:00,70.9,69.4,29.93,NE,35,6.0,6.0,95,0.00,CLR,,0.00,WeatherDisplay:10.37,2013-07-22 07:52:00,
2013-07-22 03:57:00,70.8,69.0,29.93,NNE,17,9.2,9.2,94,0.00,CLR,,0.00,WeatherDisplay:10.37,2013-07-22 07:57:00,
2013-07-22 04:02:00,70.7,69.2,29.93,North,351,6.9,6.9,95,0.00,CLR,,0.00,WeatherDisplay:10.37,2013-07-22 08:02:00,
2013-07-22 04:07:00,70.7,69.2,29.94,NE,44,6.9,6.9,95,0.00,CLR,,0.00,WeatherDisplay:10.37,2013-07-22 08:07:00,
2013-07-22 04:12:00,70.6,69.1,29.93,NNE,27,7.0,7.0,95,0.00,CLR,,0.00,WeatherDisplay:10.37,2013-07-22 08:12:00,
2013-07-22 04:18:00,70.6,69.1,29.93,NNE,24,8.1,8.1,95,0.00,CLR,,0.00,WeatherDisplay:10.37,2013-07-22 08:18:00,
2013-07-22 04:23:00,70.5,69.0,29.93,NNE,26,5.8,5.8,95,0.00,CLR,,0.00,WeatherDisplay:10.37,2013-07-22 08:23:00,
2013-07-22 04:28:00,70.5,69.0,29.93,NNE,33,5.8,5.8,95,0.00,CLR,,0.00,WeatherDisplay:10.37,2013-07-22 08:28:00,
2013-07-22 04:33:00,70.5,69.0,29.93,NNE,33,3.5,3.5,95,0.00,CLR,,0.00,WeatherDisplay:10.37,2013-07-22 08:33:00,
2013-07-22 04:38:00,70.5,69.0,29.93,NNE,33,4.6,4.6,95,0.00,CLR,,0.00,WeatherDisplay:10.37,2013-07-22 08:38:00,
2013-07-22 04:43:00,70.5,69.3,29.94,NNE,33,3.5,3.5,96,0.00,CLR,,0.00,WeatherDisplay:10.37,2013-07-22 08:43:00,
2013-07-22 04:48:00,70.4,68.9,29.94,NNE,13,4.6,5.0,95,0.00,CLR,,0.00,WeatherDisplay:10.37,2013-07-22 08:48:00,
2013-07-22 04:54:00,70.3,68.8,29.94,North,355,3.5,3.5,95,0.00,CLR,,0.00,WeatherDisplay:10.37,2013-07-22 08:54:00,
2013-07-22 04:59:00,70.4,69.2,29.93,NNE,29,3.5,3.5,96,0.00,CLR,,0.00,WeatherDisplay:10.37,2013-07-22 08:59:00,
2013-07-22 05:04:00,70.5,69.3,29.94,NNE,30,3.5,3.5,96,0.00,CLR,,0.00,WeatherDisplay:10.37,2013-07-22 09:04:00,
2013-07-22 05:09:00,70.5,69.3,29.94,NNE,28,6.9,6.9,96,0.00,CLR,,0.00,WeatherDisplay:10.37,2013-07-22 09:09:00,
2013-07-22 05:14:00,70.6,69.4,29.95,NNE,28,4.6,4.6,96,0.00,CLR,,0.00,WeatherDisplay:10.37,2013-07-22 09:14:00,
2013-07-22 05:19:00,70.5,69.3,29.95,NNE,28,3.5,3.5,96,0.00,CLR,,0.00,WeatherDisplay:10.37,2013-07-22 09:19:00,
2013-07-22 05:24:00,70.5,69.3,29.95,NNE,28,4.6,4.6,96,0.00,CLR,,0.00,WeatherDisplay:10.37,2013-07-22 09:24:00,
2013-07-22 05:30:00,70.5,69.3,29.95,NNE,28,4.0,4.0,96,0.00,CLR,,0.00,WeatherDisplay:10.37,2013-07-22 09:30:00,
2013-07-22 05:35:00,70.5,69.3,29.95,NNE,28,4.6,4.6,96,0.00,CLR,,0.00,WeatherDisplay:10.37,2013-07-22 09:35:00,
2013-07-22 05:40:00,70.5,69.3,29.95,NNE,28,3.5,3.5,96,0.00,CLR,,0.00,WeatherDisplay:10.37,2013-07-22 09:40:00,
2013-07-22 05:45:00,70.6,69.4,29.96,NNE,28,1.0,0.0,96,0.00,CLR,,0.00,WeatherDisplay:10.37,2013-07-22 09:45:00,
2013-07-22 05:50:00,70.6,69.4,29.95,NNE,28,3.5,3.5,96,0.00,CLR,,0.00,WeatherDisplay:10.37,2013-07-22 09:50:00,
2013-07-22 05:55:00,70.7,69.5,29.95,NNE,28,3.5,3.5,96,0.00,CLR,,0.00,WeatherDisplay:10.37,2013-07-22 09:55:00,
2013-07-22 06:00:00,70.8,69.6,29.96,NNE,28,3.5,3.5,96,0.00,SCT,,0.00,WeatherDisplay:10.37,2013-07-22 10:00:00,
2013-07-22 06:05:00,70.9,69.7,29.96,NNE,28,3.5,3.5,96,0.00,SCT,,0.00,WeatherDisplay:10.37,2013-07-22 10:05:00,
2013-07-22 06:10:00,70.9,69.7,29.95,NNE,28,5.0,5.0,96,0.00,SCT,,0.00,WeatherDisplay:10.37,2013-07-22 10:10:00,
2013-07-22 06:16:00,71.0,69.8,29.95,NNE,28,5.0,5.0,96,0.00,SCT,,0.00,WeatherDisplay:10.37,2013-07-22 10:16:00,
2013-07-22 06:21:00,71.1,69.9,29.95,NNE,28,3.5,3.5,96,0.00,SCT,,0.00,WeatherDisplay:10.37,2013-07-22 10:21:00,
2013-07-22 06:26:00,71.0,69.8,29.95,NNE,28,3.5,0.0,96,0.00,SCT,,0.00,WeatherDisplay:10.37,2013-07-22 10:26:00,
2013-07-22 06:31:00,71.0,69.8,29.95,NNE,28,1.1,0.0,96,0.00,SCT,,0.00,WeatherDisplay:10.37,2013-07-22 10:31:00,
2013-07-22 06:36:00,71.1,69.6,29.95,NNE,28,4.6,4.6,95,0.00,SCT,,0.00,WeatherDisplay:10.37,2013-07-22 10:36:00,
2013-07-22 06:41:00,71.0,69.5,29.95,NNE,28,3.5,3.5,95,0.00,SCT,,0.00,WeatherDisplay:10.37,2013-07-22 10:41:00,
2013-07-22 06:46:00,71.1,69.6,29.96,NNE,28,3.5,3.5,95,0.00,SCT,,0.00,WeatherDisplay:10.37,2013-07-22 10:46:00,
2013-07-22 06:51:00,71.1,69.6,29.95,NNE,28,5.8,5.8,95,0.00,SCT,,0.00,WeatherDisplay:10.37,2013-07-22 10:51:00,
2013-07-22 06:56:00,71.2,69.7,29.96,NNE,28,4.6,4.6,95,0.00,SCT,,0.00,WeatherDisplay:10.37,2013-07-22 10:56:00,
2013-07-22 07:02:00,71.3,69.8,29.96,NNE,28,4.6,4.6,95,0.00,OVC,,0.00,WeatherDisplay:10.37,2013-07-22 11:02:00,
2013-07-22 07:07:00,71.5,70.0,29.96,NNE,28,4.6,4.6,95,0.00,OVC,,0.00,WeatherDisplay:10.37,2013-07-22 11:07:00,
2013-07-22 07:12:00,71.6,70.1,29.96,NNE,28,3.5,3.5,95,0.00,OVC,,0.00,WeatherDisplay:10.37,2013-07-22 11:12:00,
2013-07-22 07:17:00,71.6,70.1,29.96,NNE,27,4.6,4.6,95,0.00,OVC,,0.00,WeatherDisplay:10.37,2013-07-22 11:17:00,
2013-07-22 07:22:00,71.6,69.8,29.96,NNE,27,4.6,4.6,94,0.00,OVC,,0.00,WeatherDisplay:10.37,2013-07-22 11:22:00,
2013-07-22 07:27:00,71.6,69.8,29.96,North,5,5.0,5.0,94,0.00,OVC,,0.00,WeatherDisplay:10.37,2013-07-22 11:27:00,
2013-07-22 07:32:00,71.6,69.8,29.95,NNW,348,6.0,6.0,94,0.00,OVC,,0.00,WeatherDisplay:10.37,2013-07-22 11:32:00,
2013-07-22 07:38:00,71.7,69.9,29.96,NE,36,6.0,6.0,94,0.00,OVC,,0.00,WeatherDisplay:10.37,2013-07-22 11:38:00,
2013-07-22 07:43:00,72.0,70.2,29.96,NNE,26,6.9,6.9,94,0.00,OVC,,0.00,WeatherDisplay:10.37,2013-07-22 11:43:00,
2013-07-22 07:48:00,72.0,69.9,29.95,NNE,19,6.9,6.9,93,0.00,OVC,,0.00,WeatherDisplay:10.37,2013-07-22 11:48:00,
2013-07-22 07:53:00,72.1,70.3,29.95,NE,38,6.9,6.9,94,0.00,OVC,,0.00,WeatherDisplay:10.37,2013-07-22 11:53:00,
2013-07-22 07:58:00,72.2,70.1,29.95,NE,40,5.0,5.0,93,0.00,OVC,,0.00,WeatherDisplay:10.37,2013-07-22 11:58:00,
2013-07-22 08:03:00,72.3,70.2,29.95,NE,40,3.5,3.5,93,0.00,OVC,,0.00,WeatherDisplay:10.37,2013-07-22 12:03:00,
2013-07-22 08:08:00,72.5,70.4,29.95,NE,40,6.9,6.9,93,0.00,OVC,,0.00,WeatherDisplay:10.37,2013-07-22 12:08:00,
2013-07-22 08:13:00,72.7,70.2,29.96,NE,40,3.5,3.5,92,0.00,OVC,,0.00,WeatherDisplay:10.37,2013-07-22 12:13:00,
2013-07-22 08:19:00,73.0,70.5,29.96,NE,40,3.5,3.6,92,0.00,OVC,,0.00,WeatherDisplay:10.37,2013-07-22 12:19:00,
2013-07-22 08:24:00,73.1,70.3,29.96,NE,40,3.5,3.5,91,0.00,OVC,,0.00,WeatherDisplay:10.37,2013-07-22 12:24:00,
2013-07-22 08:29:00,73.3,70.5,29.96,NE,40,3.5,3.5,91,0.00,OVC,,0.00,WeatherDisplay:10.37,2013-07-22 12:29:00,
2013-07-22 08:34:00,73.4,70.6,29.96,NE,55,3.5,3.5,91,0.00,OVC,,0.00,WeatherDisplay:10.37,2013-07-22 12:34:00,
2013-07-22 08:39:00,73.5,70.4,29.97,East,84,4.6,4.6,90,0.00,OVC,,0.00,WeatherDisplay:10.37,2013-07-22 12:39:00,
2013-07-22 08:44:00,73.5,70.4,29.97,East,84,3.5,3.5,90,0.00,OVC,,0.00,WeatherDisplay:10.37,2013-07-22 12:44:00,
2013-07-22 08:49:00,73.7,70.6,29.96,East,84,4.0,4.0,90,0.00,OVC,,0.00,WeatherDisplay:10.37,2013-07-22 12:49:00,
2013-07-22 08:54:00,73.9,70.8,29.96,East,82,4.6,4.6,90,0.00,OVC,,0.00,WeatherDisplay:10.37,2013-07-22 12:54:00,
2013-07-22 09:00:00,74.1,70.6,29.96,East,82,4.0,4.0,89,0.00,OVC,,0.00,WeatherDisplay:10.37,2013-07-22 13:00:00,
2013-07-22 09:05:00,74.3,70.8,29.96,ENE,67,6.9,6.9,89,0.00,OVC,,0.00,WeatherDisplay:10.37,2013-07-22 13:05:00,
2013-07-22 09:10:00,74.4,70.6,29.96,ENE,67,3.5,3.5,88,0.00,OVC,,0.00,WeatherDisplay:10.37,2013-07-22 13:10:00,
2013-07-22 09:15:00,74.6,70.8,29.96,ENE,64,6.9,6.9,88,0.00,OVC,,0.00,WeatherDisplay:10.37,2013-07-22 13:15:00,
2013-07-22 09:21:00,74.7,71.2,29.96,ENE,71,4.6,4.6,89,0.00,OVC,,0.00,WeatherDisplay:10.37,2013-07-22 13:21:00,
2013-07-22 09:26:00,74.8,71.3,29.96,ENE,69,5.8,5.8,89,0.00,OVC,,0.00,WeatherDisplay:10.37,2013-07-22 13:26:00,
2013-07-22 09:31:00,74.9,71.4,29.96,ENE,65,4.6,4.6,89,0.00,OVC,,0.00,WeatherDisplay:10.37,2013-07-22 13:31:00,
2013-07-22 09:36:00,74.9,71.4,29.96,NE,50,4.6,4.6,89,0.00,OVC,,0.00,WeatherDisplay:10.37,2013-07-22 13:36:00,
2013-07-22 09:41:00,74.9,71.4,29.96,ENE,58,4.0,4.0,89,0.00,OVC,,0.00,WeatherDisplay:10.37,2013-07-22 13:41:00,
2013-07-22 09:46:00,75.0,71.2,29.96,ENE,67,4.6,4.6,88,0.00,OVC,,0.00,WeatherDisplay:10.37,2013-07-22 13:46:00,
2013-07-22 09:51:00,75.1,71.3,29.96,ENE,64,5.0,5.0,88,0.00,OVC,,0.00,WeatherDisplay:10.37,2013-07-22 13:51:00,
2013-07-22 09:56:00,75.1,71.3,29.96,ENE,71,3.5,3.5,88,0.00,OVC,,0.00,WeatherDisplay:10.37,2013-07-22 13:56:00,
2013-07-22 10:02:00,74.9,71.1,29.96,East,86,4.6,4.6,88,0.00,OVC,,0.00,WeatherDisplay:10.37,2013-07-22 14:02:00,
2013-07-22 10:07:00,75.1,71.6,29.96,ENE,69,4.0,4.0,89,0.00,OVC,,0.00,WeatherDisplay:10.37,2013-07-22 14:07:00,
2013-07-22 10:12:00,75.3,71.8,29.96,ENE,61,5.8,5.8,89,0.00,OVC,,0.00,WeatherDisplay:10.37,2013-07-22 14:12:00,
2013-07-22 10:17:00,75.5,71.7,29.96,ENE,63,4.6,4.6,88,0.00,OVC,,0.00,WeatherDisplay:10.37,2013-07-22 14:17:00,
2013-07-22 10:22:00,75.7,71.9,29.96,ENE,63,5.0,5.0,88,0.00,OVC,,0.00,WeatherDisplay:10.37,2013-07-22 14:22:00,
2013-07-22 10:28:00,76.1,72.3,29.96,ENE,65,5.0,5.0,88,0.00,OVC,,0.00,WeatherDisplay:10.37,2013-07-22 14:28:00,
2013-07-22 10:33:00,76.4,71.9,29.96,ENE,65,3.5,3.5,86,0.00,OVC,,0.00,WeatherDisplay:10.37,2013-07-22 14:33:00,
2013-07-22 10:38:00,76.8,72.3,29.96,ENE,61,4.6,4.6,86,0.00,OVC,,0.00,WeatherDisplay:10.37,2013-07-22 14:38:00,
2013-07-22 10:43:00,77.0,72.1,29.96,ENE,61,3.5,3.5,85,0.00,OVC,,0.00,WeatherDisplay:10.37,2013-07-22 14:43:00,
2013-07-22 10:48:00,77.3,72.4,29.96,ENE,64,6.9,6.9,85,0.00,OVC,,0.00,WeatherDisplay:10.37,2013-07-22 14:48:00,
2013-07-22 10:53:00,77.6,72.4,29.96,NE,48,4.6,4.6,84,0.00,OVC,,0.00,WeatherDisplay:10.37,2013-07-22 14:53:00,
2013-07-22 10:59:00,77.8,72.6,29.96,East,84,5.8,5.8,84,0.00,OVC,,0.00,WeatherDisplay:10.37,2013-07-22 14:59:00,
2013-07-22 11:04:00,77.8,72.2,29.96,East,82,5.0,5.0,83,0.00,OVC,,0.00,WeatherDisplay:10.37,2013-07-22 15:04:00,
2013-07-22 11:09:00,77.7,72.1,29.96,ESE,106,5.8,5.8,83,0.00,OVC,,0.00,WeatherDisplay:10.37,2013-07-22 15:09:00,
2013-07-22 11:14:00,77.7,72.5,29.96,ESE,111,8.1,8.1,84,0.00,OVC,,0.00,WeatherDisplay:10.37,2013-07-22 15:14:00,
2013-07-22 11:19:00,77.6,72.4,29.96,East,101,8.1,8.1,84,0.00,OVC,,0.00,WeatherDisplay:10.37,2013-07-22 15:19:00,
2013-07-22 11:24:00,77.5,72.3,29.95,ESE,103,11.5,11.5,84,0.00,OVC,,0.00,WeatherDisplay:10.37,2013-07-22 15:24:00,
2013-07-22 11:29:00,77.5,72.6,29.95,East,97,9.2,9.2,85,0.00,OVC,,0.00,WeatherDisplay:10.37,2013-07-22 15:29:00,
2013-07-22 11:34:00,77.5,72.6,29.95,ESE,107,8.1,8.1,85,0.00,OVC,,0.00,WeatherDisplay:10.37,2013-07-22 15:34:00,
2013-07-22 11:39:00,77.7,72.8,29.95,ESE,105,11.0,11.0,85,0.00,OVC,,0.00,WeatherDisplay:10.37,2013-07-22 15:39:00,
2013-07-22 11:45:00,77.6,72.7,29.95,ESE,102,9.2,9.2,85,0.00,OVC,,0.00,WeatherDisplay:10.37,2013-07-22 15:45:00,
2013-07-22 11:50:00,77.6,72.4,29.95,East,95,11.5,11.5,84,0.00,OVC,,0.00,WeatherDisplay:10.37,2013-07-22 15:50:00,
2013-07-22 11:55:00,77.8,72.9,29.95,ESE,117,11.5,11.5,85,0.00,OVC,,0.00,WeatherDisplay:10.37,2013-07-22 15:55:00,
2013-07-22 12:00:00,77.8,72.9,29.95,ESE,113,11.5,11.5,85,0.00,OVC,,0.00,WeatherDisplay:10.37,2013-07-22 16:00:00,
2013-07-22 12:05:00,77.8,72.6,29.95,East,90,9.0,9.0,84,0.00,OVC,,0.00,WeatherDisplay:10.37,2013-07-22 16:05:00,
2013-07-22 12:10:00,77.8,72.6,29.95,ESE,115,11.5,11.7,84,0.00,OVC,,0.00,WeatherDisplay:10.37,2013-07-22 16:10:00,
2013-07-22 12:16:00,77.8,72.9,29.95,ESE,109,15.0,15.0,85,0.00,OVC,,0.00,WeatherDisplay:10.37,2013-07-22 16:16:00,
2013-07-22 12:21:00,77.6,72.4,29.95,East,95,13.8,13.8,84,0.00,OVC,,0.00,WeatherDisplay:10.37,2013-07-22 16:21:00,
2013-07-22 12:26:00,77.5,72.3,29.94,East,92,14.0,14.0,84,0.00,OVC,,0.00,WeatherDisplay:10.37,2013-07-22 16:26:00,
2013-07-22 12:31:00,77.4,71.8,29.94,ESE,115,18.4,18.4,83,0.00,OVC,,0.00,WeatherDisplay:10.37,2013-07-22 16:31:00,
2013-07-22 12:36:00,77.4,71.8,29.94,ESE,109,12.7,12.7,83,0.00,OVC,,0.00,WeatherDisplay:10.37,2013-07-22 16:36:00,
2013-07-22 12:42:00,77.4,71.8,29.94,East,90,11.5,11.5,83,0.00,OVC,,0.00,WeatherDisplay:10.37,2013-07-22 16:42:00,
2013-07-22 12:47:00,77.3,71.0,29.94,East,101,13.8,13.8,81,0.00,OVC,,0.00,WeatherDisplay:10.37,2013-07-22 16:47:00,
2013-07-22 12:52:00,77.1,70.8,29.94,East,80,12.7,12.7,81,0.00,OVC,,0.00,WeatherDisplay:10.37,2013-07-22 16:52:00,
2013-07-22 12:57:00,77.1,71.2,29.94,East,99,11.5,11.5,82,0.00,OVC,,0.00,WeatherDisplay:10.37,2013-07-22 16:57:00,
2013-07-22 13:02:00,77.1,70.8,29.94,ESE,103,12.0,12.0,81,0.00,OVC,,0.00,WeatherDisplay:10.37,2013-07-22 17:02:00,
2013-07-22 13:07:00,77.2,71.3,29.93,ESE,108,12.0,12.0,82,0.00,OVC,,0.00,WeatherDisplay:10.37,2013-07-22 17:07:00,
2013-07-22 13:13:00,77.3,71.0,29.93,East,97,13.8,13.8,81,0.00,OVC,,0.00,WeatherDisplay:10.37,2013-07-22 17:13:00,
2013-07-22 13:18:00,77.5,71.9,29.94,ESE,102,15.0,15.0,83,0.00,OVC,,0.00,WeatherDisplay:10.37,2013-07-22 17:18:00,
2013-07-22 13:23:00,77.4,71.8,29.93,East,97,11.5,11.5,83,0.00,OVC,,0.00,WeatherDisplay:10.37,2013-07-22 17:23:00,
2013-07-22 13:28:00,77.2,71.6,29.94,East,101,13.0,13.0,83,0.00,OVC,,0.00,WeatherDisplay:10.37,2013-07-22 17:28:00,
2013-07-22 13:33:00,77.1,71.9,29.94,East,86,12.7,12.7,84,0.00,OVC,,0.00,WeatherDisplay:10.37,2013-07-22 17:33:00,
2013-07-22 13:38:00,76.9,71.3,29.94,East,97,11.5,11.5,83,0.00,OVC,,0.00,WeatherDisplay:10.37,2013-07-22 17:38:00,
2013-07-22 13:43:00,76.8,71.6,29.94,ESE,103,12.0,12.0,84,0.00,OVC,,0.00,WeatherDisplay:10.37,2013-07-22 17:43:00,
2013-07-22 13:49:00,76.8,71.9,29.93,East,89,8.1,8.1,85,0.00,OVC,,0.00,WeatherDisplay:10.37,2013-07-22 17:49:00,
2013-07-22 13:54:00,77.1,72.2,29.93,East,91,11.5,11.5,85,0.00,OVC,,0.00,WeatherDisplay:10.37,2013-07-22 17:54:00,
2013-07-22 13:59:00,77.4,72.5,29.93,East,97,9.0,9.0,85,0.00,OVC,,0.00,WeatherDisplay:10.37,2013-07-22 17:59:00,
2013-07-22 14:05:00,77.5,72.6,29.93,East,101,9.0,9.0,85,0.00,BKN,,0.00,WeatherDisplay:10.37,2013-07-22 18:05:00,
2013-07-22 14:12:00,77.8,72.6,29.92,East,88,11.5,11.5,84,0.00,BKN,,0.00,WeatherDisplay:10.37,2013-07-22 18:12:00,
2013-07-22 14:17:00,78.0,73.1,29.92,East,91,9.2,9.2,85,0.00,BKN,,0.00,WeatherDisplay:10.37,2013-07-22 18:17:00,
2013-07-22 14:22:00,78.0,73.1,29.92,ESE,107,9.2,9.2,85,0.00,BKN,,0.00,WeatherDisplay:10.37,2013-07-22 18:22:00,
2013-07-22 14:27:00,78.0,72.8,29.92,ESE,110,12.7,12.7,84,0.00,BKN,,0.00,WeatherDisplay:10.37,2013-07-22 18:27:00,
2013-07-22 14:33:00,78.0,72.8,29.92,ESE,109,9.2,9.5,84,0.00,BKN,,0.00,WeatherDisplay:10.37,2013-07-22 18:33:00,
2013-07-22 14:38:00,78.0,73.1,29.92,SE,126,8.1,8.1,85,0.00,BKN,,0.00,WeatherDisplay:10.37,2013-07-22 18:38:00,
2013-07-22 14:43:00,78.2,73.0,29.91,ESE,121,11.5,11.5,84,0.00,BKN,,0.00,WeatherDisplay:10.37,2013-07-22 18:43:00,
2013-07-22 14:48:00,78.2,73.3,29.91,ESE,111,8.1,8.1,85,0.00,BKN,,0.00,WeatherDisplay:10.37,2013-07-22 18:48:00,
2013-07-22 14:53:00,78.4,73.5,29.91,SE,125,9.2,9.2,85,0.00,BKN,,0.00,WeatherDisplay:10.37,2013-07-22 18:53:00,
2013-07-22 14:59:00,78.4,73.2,29.91,ESE,109,12.7,12.7,84,0.00,BKN,,0.00,WeatherDisplay:10.37,2013-07-22 18:59:00,
2013-07-22 15:05:00,78.0,73.1,29.91,ESE,123,12.0,12.0,85,0.00,BKN,,0.00,WeatherDisplay:10.37,2013-07-22 19:05:00,
2013-07-22 15:10:00,77.6,73.1,29.91,SE,127,11.5,11.5,86,0.00,BKN,,0.00,WeatherDisplay:10.37,2013-07-22 19:10:00,
2013-07-22 15:15:00,77.5,73.0,29.91,ESE,117,14.0,14.0,86,0.00,BKN,,0.00,WeatherDisplay:10.37,2013-07-22 19:15:00,
2013-07-22 15:21:00,77.5,73.3,29.91,ESE,119,12.7,12.7,87,0.00,BKN,,0.00,WeatherDisplay:10.37,2013-07-22 19:21:00,
2013-07-22 15:26:00,77.5,73.3,29.91,ESE,116,11.5,11.5,87,0.00,BKN,,0.00,WeatherDisplay:10.37,2013-07-22 19:26:00,
2013-07-22 15:32:00,77.5,73.3,29.91,ESE,118,13.8,13.8,87,0.00,BKN,,0.00,WeatherDisplay:10.37,2013-07-22 19:32:00,
2013-07-22 15:38:00,77.4,73.2,29.90,ESE,108,11.5,11.5,87,0.00,BKN,,0.00,WeatherDisplay:10.37,2013-07-22 19:38:00,
2013-07-22 15:43:00,77.5,73.3,29.90,ESE,105,11.5,11.5,87,0.00,BKN,,0.00,WeatherDisplay:10.37,2013-07-22 19:43:00,
2013-07-22 15:48:00,77.1,72.9,29.90,SE,126,12.7,12.7,87,0.00,BKN,,0.00,WeatherDisplay:10.37,2013-07-22 19:48:00,
2013-07-22 15:53:00,76.9,73.1,29.90,ESE,116,12.0,12.0,88,0.00,BKN,,0.00,WeatherDisplay:10.37,2013-07-22 19:53:00,
2013-07-22 15:59:00,76.6,73.1,29.90,SE,126,16.1,16.1,89,0.00,BKN,,0.00,WeatherDisplay:10.37,2013-07-22 19:59:00,
2013-07-22 16:04:00,76.2,72.7,29.90,SE,126,11.5,11.5,89,0.00,BKN,,0.00,WeatherDisplay:10.37,2013-07-22 20:04:00,
2013-07-22 16:09:00,76.1,72.6,29.90,East,90,13.8,13.8,89,0.00,BKN,,0.00,WeatherDisplay:10.37,2013-07-22 20:09:00,
2013-07-22 16:14:00,76.0,72.5,29.89,ESE,106,15.0,15.0,89,0.00,BKN,,0.00,WeatherDisplay:10.37,2013-07-22 20:14:00,
2013-07-22 16:17:00,75.8,72.3,29.89,ESE,113,15.0,15.0,89,0.00,BKN,,0.00,WeatherDisplay:10.37,2013-07-22 20:17:00,
2013-07-22 16:18:00,75.7,72.2,29.89,ESE,113,12.7,12.7,89,0.00,BKN,,0.00,WeatherDisplay:10.37,2013-07-22 20:18:00,
2013-07-22 16:24:00,75.9,72.8,29.89,East,98,12.0,12.0,90,0.00,BKN,,0.00,WeatherDisplay:10.37,2013-07-22 20:24:00,
2013-07-22 16:29:00,75.8,72.3,29.89,ESE,119,14.0,14.0,89,0.00,BKN,,0.00,WeatherDisplay:10.37,2013-07-22 20:29:00,
2013-07-22 16:34:00,76.0,73.2,29.89,East,92,9.2,9.2,91,0.00,BKN,,0.00,WeatherDisplay:10.37,2013-07-22 20:34:00,
2013-07-22 16:39:00,76.3,73.1,29.89,East,96,11.5,11.5,90,0.00,BKN,,0.00,WeatherDisplay:10.37,2013-07-22 20:39:00,
2013-07-22 16:44:00,76.4,73.2,29.88,ESE,105,11.5,11.5,90,0.00,BKN,,0.00,WeatherDisplay:10.37,2013-07-22 20:44:00,
2013-07-22 16:49:00,76.7,73.5,29.88,ESE,118,11.5,11.5,90,0.00,BKN,,0.00,WeatherDisplay:10.37,2013-07-22 20:49:00,
2013-07-22 16:54:00,76.7,73.2,29.89,ESE,115,13.8,13.8,89,0.00,BKN,,0.00,WeatherDisplay:10.37,2013-07-22 20:54:00,
2013-07-22 17:00:00,76.8,73.3,29.89,ESE,111,12.0,12.0,89,0.00,BKN,,0.00,WeatherDisplay:10.37,2013-07-22 21:00:00,
2013-07-22 17:05:00,76.8,73.3,29.88,SE,131,11.5,11.5,89,0.00,BKN,,0.00,WeatherDisplay:10.37,2013-07-22 21:05:00,
2013-07-22 17:10:00,76.7,73.2,29.89,SE,128,11.5,11.5,89,0.00,BKN,,0.00,WeatherDisplay:10.37,2013-07-22 21:10:00,
2013-07-22 17:15:00,76.4,72.9,29.88,SE,125,11.5,11.5,89,0.00,BKN,,0.00,WeatherDisplay:10.37,2013-07-22 21:15:00,
2013-07-22 17:20:00,76.4,73.2,29.88,ESE,111,12.7,12.7,90,0.00,BKN,,0.00,WeatherDisplay:10.37,2013-07-22 21:20:00,
2013-07-22 17:25:00,76.1,73.0,29.88,ESE,119,14.0,14.0,90,0.00,BKN,,0.00,WeatherDisplay:10.37,2013-07-22 21:25:00,
2013-07-22 17:30:00,75.8,72.7,29.88,ESE,106,14.0,14.0,90,0.00,BKN,,0.00,WeatherDisplay:10.37,2013-07-22 21:30:00,
2013-07-22 17:36:00,75.4,72.6,29.88,ESE,121,14.0,14.0,91,0.00,BKN,,0.00,WeatherDisplay:10.37,2013-07-22 21:36:00,
2013-07-22 17:41:00,75.2,72.4,29.88,ESE,102,11.5,11.5,91,0.00,BKN,,0.00,WeatherDisplay:10.37,2013-07-22 21:41:00,
2013-07-22 17:46:00,75.1,72.3,29.87,SE,127,12.7,12.7,91,0.00,BKN,,0.00,WeatherDisplay:10.37,2013-07-22 21:46:00,
2013-07-22 17:51:00,75.1,72.6,29.87,East,82,11.5,11.5,92,0.00,BKN,,0.00,WeatherDisplay:10.37,2013-07-22 21:51:00,
2013-07-22 17:56:00,75.0,72.5,29.88,East,88,15.0,15.0,92,0.00,BKN,,0.00,WeatherDisplay:10.37,2013-07-22 21:56:00,
2013-07-22 18:01:00,74.8,72.0,29.87,ESE,112,12.0,12.0,91,0.00,OVC,,0.00,WeatherDisplay:10.37,2013-07-22 22:01:00,
2013-07-22 18:07:00,74.7,72.2,29.87,ESE,115,11.5,11.5,92,0.00,OVC,,0.00,WeatherDisplay:10.37,2013-07-22 22:07:00,
2013-07-22 18:12:00,74.5,72.0,29.87,ESE,104,11.5,11.5,92,0.00,OVC,,0.00,WeatherDisplay:10.37,2013-07-22 22:12:00,
2013-07-22 18:17:00,74.4,71.9,29.87,ESE,113,11.5,11.5,92,0.00,OVC,,0.00,WeatherDisplay:10.37,2013-07-22 22:17:00,
2013-07-22 18:22:00,74.4,71.9,29.87,East,90,11.5,11.5,92,0.00,OVC,,0.00,WeatherDisplay:10.37,2013-07-22 22:22:00,
2013-07-22 18:27:00,74.4,72.2,29.87,ESE,102,11.0,11.0,93,0.00,OVC,,0.00,WeatherDisplay:10.37,2013-07-22 22:27:00,
2013-07-22 18:32:00,74.3,72.1,29.87,ESE,105,11.5,11.5,93,0.00,OVC,,0.00,WeatherDisplay:10.37,2013-07-22 22:32:00,
2013-07-22 18:37:00,74.2,72.0,29.87,East,101,12.7,12.7,93,0.00,OVC,,0.00,WeatherDisplay:10.37,2013-07-22 22:37:00,
2013-07-22 18:43:00,74.1,71.9,29.86,East,86,10.4,10.4,93,0.00,OVC,,0.00,WeatherDisplay:10.37,2013-07-22 22:43:00,
2013-07-22 18:48:00,74.1,71.9,29.86,East,101,9.2,9.2,93,0.00,OVC,,0.00,WeatherDisplay:10.37,2013-07-22 22:48:00,
2013-07-22 18:53:00,74.1,71.9,29.86,East,89,7.0,7.0,93,0.00,OVC,,0.00,WeatherDisplay:10.37,2013-07-22 22:53:00,
2013-07-22 18:58:00,74.2,72.4,29.86,ESE,111,6.9,6.9,94,0.00,OVC,,0.00,WeatherDisplay:10.37,2013-07-22 22:58:00,
2013-07-22 19:03:00,74.3,72.5,29.86,East,96,8.1,8.1,94,0.00,OVC,,0.00,WeatherDisplay:10.37,2013-07-22 23:03:00,
2013-07-22 19:08:00,74.4,72.6,29.86,ENE,69,8.1,8.1,94,0.00,OVC,,0.00,WeatherDisplay:10.37,2013-07-22 23:08:00,
2013-07-22 19:14:00,74.3,72.5,29.86,ENE,71,6.0,6.0,94,0.00,OVC,,0.00,WeatherDisplay:10.37,2013-07-22 23:14:00,
2013-07-22 19:19:00,74.4,72.6,29.86,ENE,71,5.8,5.8,94,0.00,OVC,,0.00,WeatherDisplay:10.37,2013-07-22 23:19:00,
2013-07-22 19:24:00,74.3,72.5,29.86,ENE,71,4.6,4.6,94,0.00,OVC,,0.00,WeatherDisplay:10.37,2013-07-22 23:24:00,
2013-07-22 19:29:00,74.3,72.5,29.86,East,81,3.5,3.5,94,0.00,OVC,,0.00,WeatherDisplay:10.37,2013-07-22 23:29:00,
2013-07-22 19:35:00,74.3,72.5,29.86,East,81,4.6,4.6,94,0.00,OVC,,0.00,WeatherDisplay:10.37,2013-07-22 23:35:00,
2013-07-22 19:40:00,74.4,72.6,29.86,East,100,7.0,7.0,94,0.00,OVC,,0.00,WeatherDisplay:10.37,2013-07-22 23:40:00,
2013-07-22 19:45:00,74.5,72.7,29.86,East,98,5.0,5.2,94,0.00,OVC,,0.00,WeatherDisplay:10.37,2013-07-22 23:45:00,
2013-07-22 19:51:00,74.5,72.7,29.86,ENE,78,6.9,6.9,94,0.00,OVC,,0.00,WeatherDisplay:10.37,2013-07-22 23:51:00,
2013-07-22 19:56:00,74.5,72.7,29.86,East,100,8.1,8.1,94,0.00,OVC,,0.00,WeatherDisplay:10.37,2013-07-22 23:56:00,
2013-07-22 20:01:00,74.6,72.8,29.87,East,94,9.2,9.2,94,0.00,OVC,,0.00,WeatherDisplay:10.37,2013-07-23 00:01:00,
2013-07-22 20:06:00,74.5,72.7,29.86,East,100,6.9,6.9,94,0.00,OVC,,0.00,WeatherDisplay:10.37,2013-07-23 00:06:00,
2013-07-22 20:11:00,74.6,72.8,29.86,East,93,5.8,5.8,94,0.00,OVC,,0.00,WeatherDisplay:10.37,2013-07-23 00:11:00,
2013-07-22 20:16:00,74.7,72.9,29.86,East,101,6.0,6.0,94,0.00,OVC,,0.00,WeatherDisplay:10.37,2013-07-23 00:16:00,
2013-07-22 20:22:00,74.6,72.8,29.86,ESE,109,9.2,9.2,94,0.00,OVC,,0.00,WeatherDisplay:10.37,2013-07-23 00:22:00,
2013-07-22 20:27:00,74.7,72.9,29.86,SE,126,8.1,8.1,94,0.00,OVC,,0.00,WeatherDisplay:10.37,2013-07-23 00:27:00,
2013-07-22 20:32:00,74.6,72.8,29.86,ESE,108,9.2,9.2,94,0.00,OVC,,0.00,WeatherDisplay:10.37,2013-07-23 00:32:00,
2013-07-22 20:37:00,74.6,72.8,29.86,ESE,111,11.5,11.5,94,0.00,OVC,,0.00,WeatherDisplay:10.37,2013-07-23 00:37:00,
2013-07-22 20:43:00,74.4,72.6,29.85,ESE,105,11.5,11.5,94,0.00,OVC,,0.00,WeatherDisplay:10.37,2013-07-23 00:43:00,
2013-07-22 20:48:00,74.4,72.6,29.85,ESE,113,11.5,11.5,94,0.00,OVC,,0.00,WeatherDisplay:10.37,2013-07-23 00:48:00,
2013-07-22 20:53:00,74.3,72.5,29.85,ESE,105,12.7,12.7,94,0.00,OVC,,0.00,WeatherDisplay:10.37,2013-07-23 00:53:00,
2013-07-22 20:58:00,74.3,72.5,29.85,East,101,11.5,11.5,94,0.00,OVC,,0.00,WeatherDisplay:10.37,2013-07-23 00:58:00,
2013-07-22 21:03:00,74.3,72.5,29.85,ESE,117,9.0,9.0,94,0.00,OVC,,0.00,WeatherDisplay:10.37,2013-07-23 01:03:00,
2013-07-22 21:08:00,74.1,72.3,29.85,East,95,11.5,11.5,94,0.00,OVC,,0.00,WeatherDisplay:10.37,2013-07-23 01:08:00,
2013-07-22 21:13:00,74.1,72.3,29.85,ESE,108,11.5,11.5,94,0.00,OVC,,0.00,WeatherDisplay:10.37,2013-07-23 01:13:00,
2013-07-22 21:18:00,74.1,72.3,29.85,ESE,102,13.8,13.8,94,0.00,OVC,,0.00,WeatherDisplay:10.37,2013-07-23 01:18:00,
2013-07-22 21:24:00,74.0,72.2,29.85,ESE,106,9.2,9.2,94,0.00,OVC,,0.00,WeatherDisplay:10.37,2013-07-23 01:24:00,
2013-07-22 21:29:00,73.8,72.3,29.85,ESE,105,8.1,8.1,95,0.00,OVC,,0.00,WeatherDisplay:10.37,2013-07-23 01:29:00,
2013-07-22 21:34:00,73.8,72.3,29.85,ESE,106,11.0,11.0,95,0.00,OVC,,0.00,WeatherDisplay:10.37,2013-07-23 01:34:00,
2013-07-22 21:39:00,73.9,72.4,29.85,East,80,10.4,10.4,95,0.00,OVC,,0.00,WeatherDisplay:10.37,2013-07-23 01:39:00,
2013-07-22 21:44:00,73.7,72.2,29.85,East,82,6.9,6.9,95,0.00,OVC,,0.00,WeatherDisplay:10.37,2013-07-23 01:44:00,
2013-07-22 21:49:00,73.6,72.1,29.85,East,86,11.5,11.5,95,0.00,OVC,,0.00,WeatherDisplay:10.37,2013-07-23 01:49:00,
2013-07-22 21:54:00,73.7,72.2,29.85,East,88,7.0,7.0,95,0.00,OVC,,0.00,WeatherDisplay:10.37,2013-07-23 01:54:00,
2013-07-22 22:00:00,73.8,72.3,29.85,East,101,12.0,12.0,95,0.00,OVC,,0.00,WeatherDisplay:10.37,2013-07-23 02:00:00,
2013-07-22 22:05:00,73.6,72.1,29.85,East,96,11.5,11.5,95,0.00,-RA,,0.00,WeatherDisplay:10.37,2013-07-23 02:05:00,
2013-07-22 22:10:00,73.4,71.9,29.85,East,98,8.1,8.1,95,0.00,-RA,,0.00,WeatherDisplay:10.37,2013-07-23 02:10:00,
2013-07-22 22:15:00,73.6,72.4,29.85,ESE,102,7.0,12.0,96,0.00,-RA,,0.00,WeatherDisplay:10.37,2013-07-23 02:15:00,
2013-07-22 22:20:00,73.5,72.3,29.85,ESE,107,11.5,11.5,96,0.00,-RA,,0.00,WeatherDisplay:10.37,2013-07-23 02:20:00,
2013-07-22 22:25:00,73.7,72.5,29.85,ESE,105,12.0,12.0,96,0.00,-RA,,0.00,WeatherDisplay:10.37,2013-07-23 02:25:00,
2013-07-22 22:30:00,73.5,72.3,29.85,East,92,9.0,9.0,96,0.00,-RA,,0.00,WeatherDisplay:10.37,2013-07-23 02:30:00,
2013-07-22 22:35:00,73.6,72.4,29.85,East,91,9.2,9.2,96,0.00,-RA,,0.00,WeatherDisplay:10.37,2013-07-23 02:35:00,
2013-07-22 22:41:00,73.5,72.3,29.85,East,94,11.5,11.5,96,0.00,-RA,,0.00,WeatherDisplay:10.37,2013-07-23 02:41:00,
2013-07-22 22:46:00,73.3,72.1,29.85,East,86,5.8,5.8,96,0.00,-RA,,0.00,WeatherDisplay:10.37,2013-07-23 02:46:00,
2013-07-22 22:51:00,73.3,72.1,29.85,East,92,11.5,11.5,96,0.00,-RA,,0.00,WeatherDisplay:10.37,2013-07-23 02:51:00,
2013-07-22 22:56:00,73.2,72.0,29.85,East,86,8.1,8.1,96,0.00,-RA,,0.00,WeatherDisplay:10.37,2013-07-23 02:56:00,
2013-07-22 23:02:00,73.3,72.1,29.85,East,98,11.0,11.0,96,0.00,OVC,,0.00,WeatherDisplay:10.37,2013-07-23 03:02:00,
2013-07-22 23:07:00,73.3,72.1,29.85,ESE,105,8.1,8.1,96,0.00,OVC,,0.00,WeatherDisplay:10.37,2013-07-23 03:07:00,
2013-07-22 23:12:00,73.3,72.1,29.85,ESE,104,11.5,11.5,96,0.00,OVC,,0.00,WeatherDisplay:10.37,2013-07-23 03:12:00,
2013-07-22 23:17:00,73.3,72.4,29.84,East,86,8.1,8.1,97,0.00,OVC,,0.00,WeatherDisplay:10.37,2013-07-23 03:17:00,
2013-07-22 23:22:00,73.2,72.3,29.84,East,90,9.2,9.2,97,0.00,OVC,,0.00,WeatherDisplay:10.37,2013-07-23 03:22:00,
2013-07-22 23:28:00,73.2,72.3,29.84,East,88,7.0,7.0,97,0.00,OVC,,0.00,WeatherDisplay:10.37,2013-07-23 03:28:00,
2013-07-22 23:33:00,73.1,72.2,29.84,ENE,74,5.0,5.0,97,0.00,OVC,,0.00,WeatherDisplay:10.37,2013-07-23 03:33:00,
2013-07-22 23:38:00,73.2,72.3,29.84,ENE,76,6.9,6.9,97,0.00,OVC,,0.00,WeatherDisplay:10.37,2013-07-23 03:38:00,
2013-07-22 23:43:00,73.2,72.3,29.83,East,94,8.1,8.1,97,0.00,OVC,,0.00,WeatherDisplay:10.37,2013-07-23 03:43:00,
2013-07-22 23:48:00,73.1,72.2,29.83,ENE,76,10.4,10.4,97,0.00,OVC,,0.00,WeatherDisplay:10.37,2013-07-23 03:48:00,
2013-07-22 23:53:00,73.2,72.3,29.83,East,92,8.0,8.0,97,0.00,OVC,,0.00,WeatherDisplay:10.37,2013-07-23 03:53:00,
2013-07-22 23:59:00,73.3,72.4,29.83,East,94,6.9,6.9,97,0.00,OVC,,0.00,WeatherDisplay:10.37,2013-07-23 03:59:00,